[[{"header":{"parameterUnit":"m.s-1","parameterCategory":1,"la1":30.2991,"la2":30.254,"lo1":-89.0895,"lo2":-89.0444,"dy":0.0017,"dx":0.0017,"nx":28,"ny":28,"refTime":"2025-09-14T09:00:00:Z","depth":0,"parameterNumber":2,"parameterNumberName":"U-component_of_WINDS"},"data":[0,0,0,0,0,0,0,0,0,0,0,0,0,0,0,0,0,0,0,0,0,0,0,0,0,0,0,0,0,0,0,0,0,0,0,0,0,0,0,0,0,0,0,0,0,0,0,0,0,0,0,0,0,0,0,0,0,0,0.3938,0.3938,0,0.3985,0.3986,0.3986,0.3993,0.3993,0.3992,0.3992,0.4043,0.4045,0.4046,0,0,0,0,0,0,0,0,0,0,0,0,0,0.3854,0.3855,0.3938,0.3938,0.3939,0.3985,0.3986,0.3986,0.3993,0.3993,0.3992,0.3992,0.4042,0.4044,0.4046,0,0,0,0,0,0,0,0,0,0,0,0,0,0.3894,0.3856,0.3937,0.3948,0.3949,0.3985,0.3986,0.3986,0.3993,0.3993,0.3992,0.3992,0.4042,0.4044,0.4047,0.4076,0,0,0.4055,0.4056,0,0,0,0,0,0,0,0,0.3892,0.3898,0.3946,0.3947,0.3949,0.3982,0.3975,0.4017,0.3994,0.3977,0.3992,0.3991,0.4023,0.4028,0.4038,0.4078,0.4081,0.4055,0.4057,0.4058,0.4058,0,0,0,0,0,0,0,0.3889,0.3896,0.3956,0.3946,0.3948,0.395,0.3955,0.3983,0.4003,0.3978,0.3979,0.3984,0.4024,0.4035,0.4039,0.4081,0.4055,0.4057,0.4059,0.406,0.4146,0.4146,0,0,0,0,0,0,0.3884,0.3893,0.3955,0.3958,0.3918,0.3952,0.3958,0.3972,0.4003,0.4007,0.3985,0.3984,0.4031,0.4036,0.4041,0.4076,0.4058,0.406,0.4062,0.4145,0.4146,0.4147,0,0,0,0,0,0,0.3883,0.389,0.3953,0.3926,0.3934,0.3954,0.3971,0.3974,0.3985,0.4008,0.4012,0.3992,0.4031,0.4037,0.4067,0.4078,0.4061,0.4064,0.4144,0.4145,0.4146,0.4146,0,0,0,0,0,0,0.388,0.3889,0.3901,0.3926,0.3935,0.3978,0.3971,0.3975,0.3989,0.3989,0.4016,0.402,0.4031,0.4063,0.4069,0.4081,0.4066,0.4143,0.4145,0.4146,0.4145,0.4147,0.4149,0,0,0,0,0,0.3877,0.39,0.3901,0.3909,0.395,0.3978,0.3984,0.3995,0.399,0.4001,0.4016,0.4019,0.4075,0.4065,0.4073,0.4086,0.4143,0.4144,0.4146,0.4145,0.4147,0.4149,0,0,0,0,0,0,0.3877,0.3903,0.3905,0.3937,0.3955,0.3979,0.3995,0.3998,0.4019,0.4018,0.4032,0.4038,0.4066,0.4079,0.4068,0.4114,0.4108,0.4112,0.4105,0.4107,0.4109,0.4105,0.4068,0,0,0,0,0,0.388,0.3901,0.3923,0.3949,0.3957,0.3974,0.3987,0.3994,0.4014,0.4022,0.4039,0.4058,0.408,0.4095,0.4116,0.4147,0.4152,0.4159,0.4161,0.4162,0.4165,0.418,0.4183,0.4152,0.4152,0.4152,0,0,0.3888,0.3905,0.3917,0.3949,0.3964,0.3984,0.3981,0.4004,0.4019,0.4026,0.4054,0.4067,0.4089,0.4119,0.4133,0.413,0.4174,0.4164,0.4165,0.4167,0.4182,0.4185,0.4188,0.4153,0.4153,0.4152,0,0,0.3912,0.3927,0.3949,0.3964,0.3986,0.3997,0.4002,0.4025,0.4034,0.4062,0.4066,0.4085,0.4123,0.4138,0.4151,0.4178,0.4181,0.4185,0.4193,0.4208,0.4211,0.4213,0.4221,0.4224,0.4187,0.4187,0.4187,0,0.3919,0.395,0.3961,0.3982,0.3995,0.4001,0.4023,0.4037,0.4065,0.4074,0.4071,0.4116,0.4132,0.4165,0.4171,0.4181,0.4187,0.4182,0.4209,0.4212,0.4214,0.4222,0.4225,0.4187,0.4187,0.4187,0.4187,0,0.3957,0.3978,0.3993,0.4019,0.4034,0.4056,0.4069,0.4083,0.4088,0.4098,0.4126,0.4145,0.4169,0.4177,0.4183,0.421,0.4207,0.4206,0.4201,0.4217,0.4225,0.4228,0.4187,0.4187,0.4187,0.4187,0,0,0.3983,0.4013,0.4018,0.4029,0.4052,0.4069,0.4091,0.4113,0.4124,0.4143,0.4161,0.4191,0.419,0.4204,0.4212,0.4225,0.4243,0.4222,0.4223,0.4224,0.4271,0.4271,0.4275,0.4245,0.4245,0.4246,0.4269,0,0.401,0.4047,0.4056,0.4089,0.4108,0.4112,0.413,0.4147,0.4157,0.4174,0.4186,0.4206,0.4204,0.4212,0.4225,0.4238,0.4252,0.4236,0.4261,0.4262,0.4255,0.4279,0.428,0.4301,0.4272,0.4273,0.4273,0,0.4046,0.4064,0.4097,0.4116,0.4125,0.4141,0.4162,0.4178,0.4196,0.4203,0.4217,0.4223,0.4244,0.4237,0.4266,0.4255,0.4266,0.4273,0.4274,0.4277,0.4268,0.4282,0.4308,0.4311,0.4278,0.4278,0.4278,0,0.406,0.4093,0.4117,0.4126,0.415,0.4161,0.4171,0.4188,0.42,0.4218,0.4226,0.4246,0.4258,0.4273,0.4283,0.4277,0.4311,0.4305,0.4317,0.4316,0.4324,0.4323,0.4352,0.4331,0.4331,0.4331,0.4331,0,0.4088,0.4109,0.4123,0.4138,0.416,0.417,0.4192,0.4202,0.4217,0.4234,0.4239,0.4254,0.4267,0.4284,0.4292,0.4314,0.432,0.4325,0.4327,0.4324,0.4323,0.4331,0.433,0.4332,0.4332,0.4332,0.4332,0,0.4109,0.412,0.4146,0.4165,0.417,0.4185,0.4202,0.4216,0.4225,0.4246,0.4251,0.4266,0.4286,0.4297,0.4323,0.4328,0.4352,0.4354,0.4346,0.4347,0.4357,0.4356,0.4391,0.4396,0.4373,0.4373,0.4373,0,0.4126,0.4141,0.4161,0.4172,0.4182,0.42,0.4212,0.4222,0.4234,0.4254,0.4265,0.4285,0.4302,0.4333,0.4346,0.4365,0.4366,0.4377,0.4369,0.4366,0.4365,0.4364,0.4365,0.4379,0.4379,0.4379,0.4379,0,0.4154,0.4158,0.4175,0.4193,0.4207,0.4222,0.4237,0.4246,0.4258,0.4271,0.4291,0.4303,0.4328,0.4347,0.4367,0.4377,0.438,0.4381,0.4385,0.4383,0.4377,0.4379,0.4349,0.4381,0.4381,0.4381,0.4381,0.4381,0.4173,0.4186,0.4202,0.422,0.4232,0.4245,0.4258,0.4269,0.4285,0.4305,0.431,0.433,0.4346,0.4372,0.4383,0.4398,0.4397,0.4402,0.4403,0.4404,0.4404,0.4374,0.4402,0.4402,0.4402,0.4402,0.4402,0,0.4201,0.4211,0.4227,0.4247,0.4261,0.4261,0.4277,0.4289,0.4306,0.4321,0.4336,0.4357,0.4375,0.4389,0.4407,0.4417,0.4419,0.4421,0.4421,0.4423,0.4405,0.44,0.442,0.442,0.442,0.442,0.442,0.442,0.4217,0.4239,0.4245,0.4272,0.4281,0.4301,0.4309,0.4321,0.4332,0.4356,0.4371,0.4379,0.4392,0.4411,0.4427,0.4431,0.4437,0.4439,0.4443,0.4426,0.4424,0.4422,0.4417,0.4441,0.4441,0.4459,0.4459,0.4459]},{"header":{"parameterUnit":"m.s-1","parameterCategory":1,"la1":30.2991,"la2":30.254,"lo1":-89.0895,"lo2":-89.0444,"dy":0.0017,"dx":0.0017,"nx":28,"ny":28,"refTime":"2025-09-14T09:00:00:Z","depth":0,"parameterNumber":3,"parameterNumberName":"V-component_of_WINDS"},"data":[0,0,0,0,0,0,0,0,0,0,0,0,0,0,0,0,0,0,0,0,0,0,0,0,0,0,0,0,0,0,0,0,0,0,0,0,0,0,0,0,0,0,0,0,0,0,0,0,0,0,0,0,0,0,0,0,0,0,3.3211,3.3212,0,3.3243,3.3243,3.3243,3.3224,3.3223,3.3222,3.3221,3.3251,3.3252,3.3254,0,0,0,0,0,0,0,0,0,0,0,0,0,3.3128,3.313,3.3211,3.3212,3.3212,3.3243,3.3243,3.3244,3.3224,3.3223,3.3222,3.322,3.325,3.3252,3.3254,0,0,0,0,0,0,0,0,0,0,0,0,0,3.3162,3.313,3.3211,3.3206,3.3206,3.3243,3.3243,3.3244,3.3224,3.3223,3.3221,3.322,3.3249,3.3252,3.3254,3.3297,0,0,3.3262,3.3263,0,0,0,0,0,0,0,0,3.316,3.3165,3.3206,3.3206,3.3206,3.3228,3.3225,3.3262,3.3224,3.3217,3.3221,3.3219,3.3244,3.3247,3.3256,3.3299,3.33,3.3262,3.3264,3.3265,3.3265,0,0,0,0,0,0,0,3.3158,3.3164,3.3224,3.3207,3.3207,3.32,3.3203,3.3231,3.3238,3.3218,3.3216,3.322,3.3244,3.3253,3.3256,3.33,3.3262,3.3264,3.3266,3.3267,3.3373,3.3375,0,0,0,0,0,0,3.3157,3.3162,3.3223,3.3225,3.3179,3.3203,3.3206,3.3222,3.3237,3.3238,3.3221,3.3219,3.325,3.3253,3.3257,3.3304,3.3265,3.3267,3.3268,3.3372,3.3374,3.3375,0,0,0,0,0,0,3.3155,3.3162,3.3221,3.3193,3.32,3.3206,3.3224,3.3224,3.3233,3.324,3.3241,3.3231,3.3249,3.3254,3.3286,3.3305,3.3268,3.327,3.337,3.3373,3.3374,3.3401,0,0,0,0,0,0,3.3153,3.3162,3.318,3.3193,3.3201,3.3252,3.3225,3.3225,3.3238,3.3235,3.3249,3.325,3.3248,3.3283,3.3289,3.3308,3.3272,3.3369,3.3371,3.3374,3.3398,3.3403,3.3408,0,0,0,0,0,3.315,3.3187,3.3181,3.3188,3.3225,3.3253,3.3257,3.3255,3.324,3.3256,3.326,3.325,3.3302,3.3286,3.3293,3.3313,3.3368,3.3371,3.3374,3.3396,3.3402,3.3408,0,0,0,0,0,0,3.3176,3.3189,3.3182,3.3225,3.3238,3.325,3.3271,3.3263,3.328,3.3277,3.3272,3.3275,3.3308,3.3314,3.3296,3.3352,3.3332,3.3337,3.3347,3.3353,3.3358,3.3354,3.3274,0,0,0,0,0,3.3187,3.321,3.322,3.3256,3.3263,3.3266,3.3278,3.3275,3.3288,3.3293,3.3299,3.3311,3.3329,3.3342,3.336,3.3399,3.3399,3.3416,3.3421,3.3425,3.3428,3.3444,3.345,3.3385,3.3385,3.3385,0,0,3.3209,3.3219,3.3234,3.3262,3.3271,3.3293,3.3271,3.3296,3.3311,3.3297,3.3326,3.3331,3.3344,3.3378,3.3394,3.3384,3.3446,3.3429,3.3432,3.3433,3.3448,3.3454,3.3459,3.3387,3.3387,3.3386,0,0,3.326,3.3272,3.3301,3.3311,3.3325,3.3326,3.3332,3.3344,3.3347,3.3377,3.3365,3.3382,3.3416,3.3423,3.3432,3.348,3.347,3.3486,3.3511,3.3527,3.3532,3.3536,3.355,3.3555,3.349,3.349,3.349,0,3.3286,3.332,3.3318,3.3342,3.3352,3.334,3.3367,3.3376,3.3395,3.3401,3.3391,3.3429,3.3437,3.347,3.3482,3.3491,3.3495,3.3484,3.3531,3.3536,3.354,3.3552,3.3558,3.3492,3.3492,3.3491,3.3491,0,3.3348,3.3371,3.3393,3.341,3.3423,3.345,3.3448,3.3461,3.3456,3.3457,3.3485,3.3494,3.3511,3.3519,3.3515,3.3551,3.3543,3.3532,3.3512,3.3548,3.3559,3.3564,3.3494,3.3494,3.3493,3.3493,0,0,3.3418,3.3431,3.3438,3.3444,3.3457,3.3473,3.3497,3.3513,3.3522,3.3535,3.3552,3.3579,3.3567,3.3576,3.3573,3.3587,3.3619,3.3573,3.3573,3.3578,3.3654,3.366,3.3666,3.3613,3.3614,3.3615,3.3652,0,3.3466,3.3508,3.3504,3.3542,3.356,3.3547,3.3567,3.3575,3.3576,3.359,3.3591,3.3608,3.3594,3.3598,3.3612,3.3613,3.3634,3.361,3.3626,3.3626,3.362,3.3673,3.3681,3.3715,3.3657,3.3657,3.3658,0,3.3529,3.3542,3.3581,3.3586,3.3594,3.3612,3.3624,3.3639,3.3647,3.3646,3.3655,3.3647,3.3667,3.3648,3.3674,3.3657,3.3663,3.3664,3.3666,3.3665,3.3643,3.367,3.3727,3.3731,3.3666,3.3665,3.3665,0,3.357,3.3598,3.3623,3.3629,3.3637,3.3649,3.3653,3.3659,3.3668,3.3678,3.3683,3.3696,3.3702,3.3711,3.3706,3.3693,3.3731,3.3712,3.3729,3.3728,3.3736,3.3735,3.379,3.3745,3.3745,3.3744,3.3744,0,3.3622,3.3646,3.3641,3.3657,3.3681,3.3676,3.37,3.3702,3.3707,3.3721,3.3711,3.3724,3.3718,3.373,3.3726,3.3745,3.375,3.3747,3.3745,3.3747,3.3746,3.3749,3.3745,3.3746,3.3746,3.3745,3.3745,0,3.3671,3.367,3.3696,3.3701,3.3702,3.372,3.3722,3.3736,3.3735,3.3752,3.3756,3.3754,3.3767,3.3763,3.3778,3.3775,3.3799,3.3796,3.3796,3.3794,3.3809,3.3806,3.3866,3.3872,3.3825,3.3825,3.3826,0,3.3704,3.3721,3.3726,3.3734,3.3738,3.3753,3.376,3.3755,3.3763,3.3771,3.3782,3.3794,3.3803,3.3824,3.3823,3.3833,3.3828,3.3848,3.3829,3.3828,3.3824,3.3822,3.3822,3.3851,3.3852,3.3852,3.3852,0,3.3759,3.3756,3.3768,3.3778,3.3788,3.3796,3.3803,3.381,3.3805,3.3814,3.3827,3.3834,3.3847,3.3858,3.3866,3.3868,3.3858,3.3858,3.3862,3.3862,3.386,3.3858,3.3803,3.3857,3.3856,3.3856,3.3856,3.3856,3.3798,3.381,3.3815,3.3827,3.3832,3.3838,3.3849,3.3848,3.3859,3.3869,3.3865,3.3879,3.3882,3.3892,3.3895,3.3904,3.3897,3.3903,3.3904,3.3905,3.3905,3.3861,3.3906,3.3906,3.3906,3.3906,3.3906,0,3.3849,3.385,3.3862,3.3871,3.388,3.387,3.3876,3.3884,3.3896,3.3901,3.3909,3.3921,3.3931,3.393,3.3938,3.3945,3.3941,3.3947,3.3945,3.3945,3.3913,3.3908,3.3951,3.3951,3.3951,3.3951,3.3951,3.3951,3.3876,3.3896,3.3893,3.3914,3.3915,3.3928,3.3932,3.3936,3.3939,3.3953,3.3961,3.396,3.3961,3.3969,3.3976,3.3976,3.3978,3.3985,3.3983,3.3953,3.3948,3.3944,3.3938,3.3987,3.3987,3.4013,3.4014,3.4014]}]]